TimeEST,TemperatureF,Dew PointF,Humidity,Sea Level PressureIn,VisibilityMPH,Wind Direction,Wind SpeedMPH,Gust SpeedMPH,PrecipitationIn,Events,Conditions,WindDirDegrees,DateUTC
12:15 AM,51.8,46.4,82,29.93,10.0,SW,3.5,-,N/A,,Clear,230,2012-11-24 05:15:00
12:55 AM,50.0,46.4,87,29.92,10.0,West,3.5,-,N/A,,Clear,280,2012-11-24 05:55:00
1:15 AM,50.0,44.6,82,29.92,10.0,Calm,Calm,-,N/A,,Clear,0,2012-11-24 06:15:00
1:35 AM,51.8,46.4,82,29.92,10.0,West,4.6,-,N/A,,Clear,260,2012-11-24 06:35:00
1:55 AM,51.8,46.4,82,29.93,10.0,West,3.5,-,N/A,,Clear,270,2012-11-24 06:55:00
2:15 AM,50.0,44.6,82,29.93,10.0,WNW,3.5,-,N/A,,Clear,290,2012-11-24 07:15:00
2:35 AM,50.0,46.4,87,29.94,10.0,WNW,4.6,-,N/A,,Clear,290,2012-11-24 07:35:00
3:15 AM,50.0,44.6,82,29.95,10.0,WNW,3.5,-,N/A,,Clear,290,2012-11-24 08:15:00
3:35 AM,46.4,42.8,87,29.95,10.0,West,6.9,-,N/A,,Clear,280,2012-11-24 08:35:00
3:55 AM,48.2,44.6,87,29.95,10.0,WNW,6.9,-,N/A,,Clear,290,2012-11-24 08:55:00
4:15 AM,48.2,42.8,82,29.96,10.0,WNW,3.5,-,N/A,,Clear,290,2012-11-24 09:15:00
4:55 AM,46.4,41.0,81,29.97,10.0,Calm,Calm,-,N/A,,Clear,0,2012-11-24 09:55:00
5:15 AM,44.6,41.0,87,29.98,10.0,West,3.5,-,N/A,,Clear,280,2012-11-24 10:15:00
5:35 AM,42.8,41.0,93,29.98,10.0,Calm,Calm,-,N/A,,Clear,0,2012-11-24 10:35:00
5:55 AM,41.0,39.2,93,29.99,10.0,West,3.5,-,N/A,,Clear,280,2012-11-24 10:55:00
6:15 AM,41.0,37.4,87,30.00,10.0,Calm,Calm,-,N/A,,Clear,0,2012-11-24 11:15:00
6:35 AM,41.0,37.4,87,30.01,10.0,Calm,Calm,-,N/A,,Clear,0,2012-11-24 11:35:00
6:55 AM,39.2,35.6,87,30.01,10.0,Calm,Calm,-,N/A,,Clear,0,2012-11-24 11:55:00
7:15 AM,39.2,35.6,87,30.02,10.0,Calm,Calm,-,N/A,,Clear,0,2012-11-24 12:15:00
7:35 AM,39.2,37.4,93,30.03,10.0,Calm,Calm,-,N/A,,Clear,0,2012-11-24 12:35:00
7:55 AM,39.2,37.4,93,30.03,10.0,Calm,Calm,-,N/A,,Clear,0,2012-11-24 12:55:00
8:15 AM,42.8,41.0,93,30.04,10.0,Calm,Calm,-,N/A,,Clear,0,2012-11-24 13:15:00
8:35 AM,46.4,41.0,81,30.04,10.0,West,4.6,-,N/A,,Clear,280,2012-11-24 13:35:00
8:55 AM,50.0,39.2,66,30.04,10.0,West,5.8,-,N/A,,Clear,280,2012-11-24 13:55:00
9:15 AM,50.0,37.4,62,30.05,10.0,WNW,6.9,-,N/A,,Clear,300,2012-11-24 14:15:00
9:35 AM,51.8,37.4,58,30.05,10.0,WNW,3.5,-,N/A,,Clear,290,2012-11-24 14:35:00
10:15 AM,53.6,35.6,51,30.06,10.0,NNW,9.2,-,N/A,,Clear,330,2012-11-24 15:15:00
10:35 AM,53.6,35.6,51,30.06,10.0,NNW,10.4,-,N/A,,Clear,330,2012-11-24 15:35:00
10:55 AM,55.4,35.6,47,30.05,10.0,NNW,8.1,-,N/A,,Clear,330,2012-11-24 15:55:00
11:15 AM,55.4,35.6,47,30.04,10.0,NW,4.6,-,N/A,,Clear,310,2012-11-24 16:15:00
11:35 AM,55.4,35.6,47,30.03,10.0,West,11.5,16.1,N/A,,Clear,280,2012-11-24 16:35:00
11:55 AM,57.2,35.6,44,30.03,10.0,WNW,6.9,-,N/A,,Clear,300,2012-11-24 16:55:00
12:15 PM,57.2,35.6,44,30.01,10.0,NW,4.6,-,N/A,,Clear,310,2012-11-24 17:15:00
12:35 PM,59.0,35.6,42,30.01,10.0,WNW,10.4,-,N/A,,Clear,300,2012-11-24 17:35:00
12:55 PM,59.0,35.6,42,30.00,10.0,WNW,9.2,-,N/A,,Clear,290,2012-11-24 17:55:00
1:15 PM,59.0,35.6,42,29.99,10.0,WNW,8.1,-,N/A,,Clear,290,2012-11-24 18:15:00
1:35 PM,59.0,35.6,42,29.98,10.0,WNW,10.4,18.4,N/A,,Clear,300,2012-11-24 18:35:00
1:55 PM,59.0,35.6,42,29.98,10.0,West,8.1,-,N/A,,Clear,260,2012-11-24 18:55:00
2:15 PM,59.0,35.6,42,29.97,10.0,West,11.5,-,N/A,,Clear,280,2012-11-24 19:15:00
2:35 PM,59.0,35.6,42,29.98,10.0,West,10.4,-,N/A,,Clear,280,2012-11-24 19:35:00
2:55 PM,59.0,35.6,42,29.97,10.0,West,11.5,17.3,N/A,,Clear,280,2012-11-24 19:55:00
3:15 PM,59.0,35.6,42,29.98,10.0,West,10.4,-,N/A,,Clear,270,2012-11-24 20:15:00
3:35 PM,59.0,35.6,42,29.98,10.0,West,10.4,-,N/A,,Clear,280,2012-11-24 20:35:00
3:55 PM,59.0,35.6,42,29.98,10.0,NW,6.9,-,N/A,,Clear,310,2012-11-24 20:55:00
4:15 PM,59.0,35.6,42,29.99,10.0,WNW,5.8,-,N/A,,Clear,300,2012-11-24 21:15:00
4:35 PM,59.0,33.8,39,30.00,10.0,WNW,5.8,-,N/A,,Clear,300,2012-11-24 21:35:00
4:55 PM,55.4,35.6,47,30.01,10.0,NW,4.6,-,N/A,,Clear,310,2012-11-24 21:55:00
5:15 PM,53.6,37.4,54,30.01,10.0,Calm,Calm,-,N/A,,Clear,0,2012-11-24 22:15:00
5:35 PM,50.0,37.4,62,30.02,10.0,Calm,Calm,-,N/A,,Clear,0,2012-11-24 22:35:00
6:15 PM,46.4,37.4,71,30.03,10.0,Calm,Calm,-,N/A,,Clear,0,2012-11-24 23:15:00
6:35 PM,44.6,37.4,76,30.04,7.0,Calm,Calm,-,N/A,,Clear,0,2012-11-24 23:35:00
6:55 PM,44.6,37.4,76,30.04,10.0,Calm,Calm,-,N/A,,Clear,0,2012-11-24 23:55:00
7:15 PM,42.8,37.4,81,30.05,10.0,Calm,Calm,-,N/A,,Clear,0,2012-11-25 00:15:00
7:35 PM,41.0,37.4,87,30.06,10.0,Calm,Calm,-,N/A,,Clear,0,2012-11-25 00:35:00
7:55 PM,41.0,35.6,81,30.06,10.0,Calm,Calm,-,N/A,,Clear,0,2012-11-25 00:55:00
8:15 PM,39.2,35.6,87,30.07,10.0,Calm,Calm,-,N/A,,Clear,0,2012-11-25 01:15:00
8:35 PM,39.2,35.6,87,30.08,10.0,Calm,Calm,-,N/A,,Clear,0,2012-11-25 01:35:00
8:55 PM,37.4,35.6,93,30.09,10.0,Calm,Calm,-,N/A,,Clear,0,2012-11-25 01:55:00
9:15 PM,37.4,35.6,93,30.09,10.0,Calm,Calm,-,N/A,,Clear,0,2012-11-25 02:15:00
9:35 PM,37.4,35.6,93,30.10,10.0,Calm,Calm,-,N/A,,Clear,0,2012-11-25 02:35:00
9:55 PM,35.6,33.8,93,30.10,10.0,Calm,Calm,-,N/A,,Clear,0,2012-11-25 02:55:00
10:15 PM,35.6,35.6,100,30.11,10.0,Calm,Calm,-,N/A,,Clear,0,2012-11-25 03:15:00
10:35 PM,33.8,32.0,93,30.11,10.0,Calm,Calm,-,N/A,,Clear,0,2012-11-25 03:35:00
11:15 PM,33.8,33.8,100,30.12,10.0,Calm,Calm,-,N/A,,Clear,0,2012-11-25 04:15:00
11:35 PM,33.8,33.8,100,30.12,10.0,Calm,Calm,-,N/A,,Clear,0,2012-11-25 04:35:00